Date String (YYYY-MM-DD hh:mm:ss) UTC,Instrument flags,Ambient pressure (hPa),Sample flow (lpm),Bypass flow (lpm),Sample temperature (°C),Ambient temperature (°C),ASC tube jacket temperature (°C),LED temperature (°C),Box temperature (°C),Sample RH (%),Span deviation,Mass concentration (μg/m³),Mass concentration (μg/m³),Mass concentration (μg/m³)
DateTimeUTC,F1_M11,P_M11,Q1_M11,Q2_M11,T1_M11,T2_M11,T3_M11,T4_M11,T5_M11,U1_M11,ZSPAN_M11,X0_M11,X2_M11,X1_M11
2023-02-09 18:00:00,,0833.2,4.97,0.00,22.2,21.5,00.0,31.0,23.8,07.1,0000.0,0001.40,0000.77,0000.56
2023-02-09 18:01:00,,0833.3,4.99,0.00,22.2,21.1,00.0,31.1,23.8,07.1,0000.0,0001.35,0000.75,0000.57
2023-02-09 18:02:00,,0833.1,4.97,0.00,22.2,20.8,00.0,31.1,23.7,07.3,0000.0,0001.32,0000.75,0000.58
2023-02-09 18:03:00,,0833.1,5.02,0.00,22.1,20.8,00.0,31.0,23.7,07.2,0000.0,0001.37,0000.77,0000.58
2023-02-09 18:04:00,,0833.1,4.99,0.00,22.2,21.8,00.0,31.0,24.0,07.2,0000.0,0001.32,0000.77,0000.58
2023-02-09 18:05:00,,0833.1,5.05,0.00,22.3,22.9,00.0,31.0,24.3,06.9,0000.0,0001.24,0000.75,0000.59
2023-02-09 18:06:00,,0833.1,4.97,0.00,22.4,23.2,00.0,31.1,24.4,06.9,0000.0,0001.21,0000.74,0000.58
2023-02-09 18:07:00,,0833.1,5.01,0.00,22.5,22.5,00.0,31.1,24.2,06.7,0000.0,0001.17,0000.71,0000.58
2023-02-09 18:08:00,,0833.1,5.01,0.00,22.4,21.9,00.0,31.2,24.0,06.8,0000.0,0001.18,0000.72,0000.58
2023-02-09 18:09:00,,0833.1,4.97,0.00,22.4,21.4,00.0,31.2,23.9,06.8,0000.0,0001.17,0000.71,0000.58
2023-02-09 18:10:00,,0833.1,5.05,0.00,22.3,21.3,00.0,31.2,23.9,06.9,0000.0,0001.11,0000.69,0000.57
2023-02-09 18:11:00,,0833.1,5.00,0.00,22.4,22.3,00.0,31.1,24.2,06.8,0000.0,0000.99,0000.67,0000.57
2023-02-09 18:12:00,,0833.1,4.99,0.00,22.6,23.3,00.0,31.2,24.5,06.7,0000.0,0001.02,0000.67,0000.56
2023-02-09 18:13:00,,0833.1,4.99,0.00,22.7,23.4,00.0,31.2,24.6,06.7,0000.0,0000.98,0000.66,0000.55
2023-02-09 18:14:00,,0833.1,5.03,0.00,22.7,22.7,00.0,31.3,24.4,06.8,0000.0,0000.93,0000.63,0000.54
2023-02-09 18:15:00,,0833.1,4.96,0.00,22.6,22.1,00.0,31.3,24.3,06.9,0000.0,0000.90,0000.62,0000.54
2023-02-09 18:16:00,,0833.1,5.04,0.00,22.6,21.7,00.0,31.3,24.1,07.2,0000.0,0000.85,0000.60,0000.53
2023-02-09 18:17:00,,0833.1,5.01,0.00,22.6,22.3,00.0,31.3,24.3,07.0,0000.0,0000.89,0000.62,0000.54
2023-02-09 18:18:00,,0833.1,4.99,0.00,22.7,23.3,00.0,31.4,24.7,06.9,0000.0,0001.00,0000.64,0000.54
2023-02-09 18:19:00,,0833.1,5.03,0.00,22.8,23.3,00.0,31.4,24.7,06.7,0000.0,0001.15,0000.69,0000.56
2023-02-09 18:20:00,,0833.1,5.01,0.00,22.8,22.7,00.0,31.5,24.6,07.0,0000.0,0001.17,0000.71,0000.57
2023-02-09 18:21:00,,0833.0,4.96,0.00,22.8,22.1,00.0,31.5,24.4,07.1,0000.0,0001.22,0000.72,0000.58
2023-02-09 18:22:00,,0833.1,5.02,0.00,22.7,21.7,00.0,31.5,24.3,06.9,0000.0,0001.28,0000.74,0000.58
2023-02-09 18:23:00,,0833.1,4.98,0.00,22.7,21.8,00.0,31.5,24.3,06.9,0000.0,0001.28,0000.74,0000.59
2023-02-09 18:24:00,,0833.1,4.98,0.00,22.8,22.9,00.0,31.5,24.7,06.9,0000.0,0001.31,0000.75,0000.59
2023-02-09 18:25:00,,0833.1,4.99,0.00,22.9,23.5,00.0,31.5,24.9,07.0,0000.0,0001.43,0000.78,0000.60
2023-02-09 18:26:00,,0833.1,5.01,0.00,23.0,23.0,00.0,31.6,24.8,07.0,0000.0,0001.50,0000.80,0000.61
2023-02-09 18:27:00,,0833.0,4.99,0.00,22.9,22.4,00.0,31.6,24.6,06.8,0000.0,0001.54,0000.81,0000.62
2023-02-09 18:28:00,,0833.0,4.98,0.00,22.9,21.9,00.0,31.7,24.5,06.8,0000.0,0001.63,0000.82,0000.63
2023-02-09 18:29:00,,0833.0,4.96,0.00,22.9,22.1,00.0,31.6,24.6,06.8,0000.0,0001.54,0000.81,0000.63
2023-02-09 18:30:00,,0833.0,5.01,0.00,23.0,23.2,00.0,31.6,24.9,07.0,0000.0,0001.46,0000.80,0000.62
2023-02-09 18:31:00,,0833.0,5.00,0.00,23.1,24.1,00.0,31.7,25.1,06.9,0000.0,0001.42,0000.79,0000.63
2023-02-09 18:32:00,,0832.9,5.00,0.00,23.2,23.7,00.0,31.8,25.1,06.6,0000.0,0001.41,0000.78,0000.62
2023-02-09 18:33:00,,0833.0,4.99,0.00,23.2,23.0,00.0,31.8,24.9,06.5,0000.0,0001.31,0000.77,0000.63
2023-02-09 18:34:00,,0832.9,4.97,0.00,23.1,22.4,00.0,31.8,24.7,06.7,0000.0,0001.35,0000.79,0000.63
2023-02-09 18:35:00,,0833.0,5.03,0.00,23.2,22.8,00.0,31.8,24.9,06.9,0000.0,0001.34,0000.80,0000.65
2023-02-09 18:36:00,,0832.9,4.99,0.00,23.3,23.9,00.0,31.8,25.2,06.9,0000.0,0001.33,0000.81,0000.65
2023-02-09 18:37:00,,0832.9,5.00,0.00,23.4,24.1,00.0,31.9,25.3,06.7,0000.0,0001.33,0000.83,0000.65
2023-02-09 18:38:00,,0832.9,5.00,0.00,23.4,23.4,00.0,32.0,25.1,06.5,0000.0,0001.42,0000.83,0000.65
2023-02-09 18:39:00,,0832.9,4.99,0.00,23.4,22.8,00.0,32.0,25.0,06.7,0000.0,0003.08,0000.83,0000.66
2023-02-09 18:40:00,,0832.8,5.01,0.00,23.3,22.3,00.0,32.0,24.9,06.6,0000.0,0003.09,0000.84,0000.67
2023-02-09 18:41:00,,0832.8,5.00,0.00,23.3,22.2,00.0,32.0,24.9,06.6,0000.0,0003.02,0000.83,0000.67
2023-02-09 18:42:00,,0832.8,5.01,0.00,23.4,23.3,00.0,32.0,25.1,06.7,0000.0,0003.08,0000.85,0000.68
2023-02-09 18:43:00,,0832.8,5.00,0.00,23.5,24.1,00.0,32.0,25.4,06.7,0000.0,0003.14,0000.89,0000.69
2023-02-09 18:44:00,,0832.8,4.98,0.00,23.5,23.6,00.0,32.1,25.3,06.7,0000.0,0003.18,0000.91,0000.70
2023-02-09 18:45:00,,0832.8,5.00,0.00,23.5,22.9,00.0,32.1,25.1,06.9,0000.0,0003.16,0000.91,0000.71
2023-02-09 18:46:00,,0832.8,5.01,0.00,23.4,22.4,00.0,32.2,25.0,06.8,0000.0,0003.18,0000.93,0000.71
2023-02-09 18:47:00,,0832.8,5.00,0.00,23.4,22.5,00.0,32.2,25.0,06.7,0000.0,0003.83,0000.94,0000.72
2023-02-09 18:48:00,,0832.8,4.98,0.00,23.5,23.6,00.0,32.2,25.3,06.6,0000.0,0004.19,0000.92,0000.72
2023-02-09 18:49:00,,0832.8,5.03,0.00,23.6,24.2,00.0,32.2,25.5,06.6,0000.0,0004.07,0000.93,0000.73
2023-02-09 18:50:00,,0832.8,4.99,0.00,23.6,23.6,00.0,32.3,25.4,06.5,0000.0,0002.40,0000.94,0000.73
2023-02-09 18:51:00,,0832.8,5.03,0.00,23.6,22.9,00.0,32.3,25.2,06.5,0000.0,0002.45,0000.96,0000.74
2023-02-09 18:52:00,,0832.8,4.96,0.00,23.5,22.6,00.0,32.3,25.1,06.7,0000.0,0002.47,0000.96,0000.75
2023-02-09 18:53:00,,0832.8,5.05,0.00,23.6,23.5,00.0,32.3,25.4,06.8,0000.0,0002.40,0000.93,0000.75
2023-02-09 18:54:00,,0832.8,4.96,0.00,23.7,24.4,00.0,32.3,25.6,06.9,0000.0,0002.39,0000.93,0000.76
2023-02-09 18:55:00,,0832.8,5.03,0.00,23.8,24.0,00.0,32.4,25.5,06.8,0000.0,0002.44,0000.94,0000.76
2023-02-09 18:56:00,,0832.8,4.96,0.00,23.8,23.3,00.0,32.4,25.4,06.8,0000.0,0002.52,0000.95,0000.76
2023-02-09 18:57:00,,0832.7,4.99,0.00,23.7,22.8,00.0,32.4,25.3,06.6,0000.0,0002.54,0000.95,0000.76
2023-02-09 18:58:00,,0832.8,4.97,0.00,23.7,22.6,00.0,32.4,25.2,06.2,0000.0,0001.90,0000.96,0000.76
2023-02-09 18:59:00,,0832.8,5.03,0.00,23.7,23.6,00.0,32.4,25.5,06.4,0000.0,0001.62,0000.99,0000.77
